"timestamp";"minute";"mean_h";"std_h";"mean_l";"std_l"
2019-10-31T23:00:56;1;-117.53565;3.5901673;-118.59715;3.1794136
2019-10-31T23:05:56;1;-118.32986;3.2562773;-118.84773;3.1810267
2019-10-31T23:10:56;1;-117.68663;3.5861495;-118.47762;3.5329711
2019-10-31T23:15:56;1;-118.77774;3.2768202;-119.91434;2.9002979
2019-10-31T23:20:56;1;-116.49056;4.067636;-118.22716;3.6518753
2019-10-31T23:25:56;1;-118.26709;3.2529879;-118.58539;3.227386
2019-10-31T23:30:56;1;-118.51399;3.2509577;-119.29171;3.040717
2019-10-31T23:45:56;1;-117.71078;3.3592372;-118.48069;3.2598891
2019-10-31T23:50:56;1;-118.95947;3.110103;-119.65554;3.0441518
2019-10-31T23:55:56;1;-117.60482;3.5664794;-117.671715;3.4339218
2019-11-01T00:00:56;1;-116.9921;3.9366403;-118.07249;3.697551
2019-11-01T00:05:56;1;-117.907234;3.6393092;-119.36821;3.0800574
2019-11-01T00:10:56;1;-115.278465;4.7164626;-118.59769;3.5621128
2019-11-01T00:15:56;1;-118.55369;3.5710678;-120.63084;2.7649906
2019-11-01T00:20:56;1;-117.4546;3.7748275;-117.08942;3.7506723
2019-11-01T00:25:56;1;-117.89445;3.7425287;-120.33869;2.8379612
2019-11-01T00:30:56;1;-117.33224;3.9907665;-119.75451;3.1762998
2019-11-01T00:35:56;1;-118.41914;3.4654818;-119.878105;2.8911238
2019-11-01T00:40:56;1;-118.43669;3.542916;-120.31342;2.8008163
2019-11-01T00:45:56;1;-117.95824;3.6137402;-119.693146;2.9808776
2019-11-01T00:50:56;1;-118.07511;3.706007;-118.7164;3.6219604
2019-11-01T00:55:56;1;-118.13653;3.6894798;-118.72765;3.5324929
2019-11-01T01:00:56;1;-118.30492;3.5875285;-119.54838;3.1337464
2019-11-01T01:05:56;1;-118.42446;3.63052;-120.30049;2.907195
2019-11-01T01:10:56;1;-118.04427;3.682937;-119.3905;3.2339642
2019-11-01T01:15:56;1;-118.42176;3.4562817;-119.592636;3.0809853
2019-11-01T01:20:56;1;-118.57204;3.5841792;-119.571976;3.3157332
2019-11-01T01:25:56;1;-118.85115;3.5548325;-120.89255;2.863117
2019-11-01T01:30:56;1;-118.240906;3.579429;-119.28643;3.0380218
2019-11-01T01:35:56;1;-118.06137;3.8296125;-119.45965;3.3254383
2019-11-01T01:40:56;1;-118.740295;3.5237231;-120.38001;2.9897804
2019-11-01T01:45:56;1;-118.56104;3.49494;-119.287834;3.2492857
2019-11-01T01:50:56;1;-118.73152;3.5188727;-120.50487;2.9234786
2019-11-01T01:55:56;1;-117.86127;3.594281;-118.735;3.3457587
2019-11-01T02:00:56;1;-117.937584;3.6743906;-119.38619;3.2173698
2019-11-01T02:05:56;1;-116.65622;3.385349;-117.626625;3.033851
2019-11-01T02:10:56;1;-116.50975;3.842717;-118.25342;3.470521
2019-11-01T02:15:56;1;-118.76271;3.3592925;-119.839836;3.066704
2019-11-01T02:20:56;1;-119.084404;3.114351;-120.15038;2.8282201
2019-11-01T02:25:56;1;-118.229546;3.238574;-118.97241;3.0473585
2019-11-01T02:30:56;1;-117.36864;3.5400004;-118.272964;3.3479533
2019-11-01T02:35:56;1;-117.661026;3.6861873;-119.4549;3.1278057
2019-11-01T02:40:56;1;-116.177956;4.257299;-119.75774;3.0178835
2019-11-01T02:45:56;1;-118.500275;3.3484814;-119.24375;3.301603
2019-11-01T02:50:56;1;-117.28914;3.9362323;-120.58106;2.752749
2019-11-01T02:55:56;1;-117.728004;3.1844096;-118.55367;3.0091581
2019-11-01T03:00:56;1;-118.43755;3.3851085;-118.95573;3.3991537
2019-11-01T03:05:56;1;-118.83853;3.4159195;-119.734795;3.2491143
2019-11-01T03:10:56;1;-118.739494;3.3662803;-119.38197;3.1868937
2019-11-01T03:15:56;1;-119.88409;3.1158154;-120.44682;3.0219424
2019-11-01T03:20:56;1;-119.24677;3.256168;-119.645096;3.230272
2019-11-01T03:25:56;1;-118.03332;3.7410269;-119.673134;3.2774792
2019-11-01T03:30:56;1;-119.72819;3.258567;-120.2101;3.220188
2019-11-01T03:35:56;1;-118.85024;3.469369;-120.17286;3.0462625
2019-11-01T03:40:56;1;-119.58119;3.4024823;-119.54421;3.4744668
2019-11-01T03:45:56;1;-119.18218;3.378492;-119.15533;3.6210823
2019-11-01T03:50:56;1;-119.2269;3.3595939;-119.0842;3.5006151
2019-11-01T03:55:56;1;-119.88494;3.149399;-120.24436;3.058575
2019-11-01T04:00:56;1;-118.90657;3.0854368;-119.08891;3.0343745
2019-11-01T04:05:56;1;-112.02212;5.695567;-110.3102;5.9347258
2019-11-01T04:10:56;1;-119.92674;2.9188988;-120.31882;2.9195957
2019-11-01T04:15:56;1;-115.01973;5.373524;-120.53905;2.9608886
2019-11-01T04:20:56;1;-118.97279;3.1440783;-118.544975;3.179592
2019-11-01T04:25:56;1;-119.99324;2.8406708;-120.26423;2.825462
2019-11-01T04:30:56;1;-119.11093;3.0444217;-119.234955;2.9786272
2019-11-01T04:35:56;1;-116.19366;4.164731;-118.60337;3.3738081
2019-11-01T04:40:56;1;-119.4699;3.0656073;-119.94066;2.984235
2019-11-01T04:45:56;1;-109.11285;7.389548;-106.341484;6.6023026
2019-11-01T04:50:56;1;-118.95548;3.2753727;-119.48677;3.1031134
2019-11-01T04:55:56;1;-114.8818;4.021371;-114.06108;3.3112066
2019-11-01T05:00:56;1;-115.600525;3.4220495;-113.7555;3.5541246
2019-11-01T05:05:56;1;-119.10178;3.2602513;-119.96721;3.1058936
2019-11-01T05:10:56;1;-118.56816;3.155497;-118.74983;3.1802814
2019-11-01T05:15:56;1;-118.93278;2.8939583;-118.98811;2.8308456
2019-11-01T05:20:56;1;-119.532074;2.9078543;-120.14216;2.7456014
2019-11-01T05:25:56;1;-119.06346;3.2842374;-119.29944;3.2982056
2019-11-01T05:30:56;1;-119.23505;3.0973165;-120.27025;2.778693
2019-11-01T05:35:56;1;-119.06587;3.1086643;-119.05392;3.2088974
2019-11-01T05:40:56;1;-119.40047;3.0797942;-120.148285;3.0005424
2019-11-01T05:45:56;1;-118.30352;3.7044525;-120.28388;2.9339974
2019-11-01T05:50:56;1;-117.67132;4.0433803;-120.71405;2.9190288
2019-11-01T05:55:56;1;-115.749886;4.7181835;-120.454765;2.7445467
2019-11-01T06:00:56;1;-112.84554;5.724706;-118.73811;3.4009864
2019-11-01T06:05:56;1;-110.499916;6.9483786;-118.33433;3.4998186
2019-11-01T06:10:56;1;-108.46041;7.640199;-119.89948;2.6714592
2019-11-01T06:15:56;1;-108.198235;7.74747;-119.10648;3.0828388
2019-11-01T06:20:56;1;-107.8575;7.9844856;-119.50853;3.0722084
2019-11-01T06:25:56;1;-105.19851;9.205309;-120.299164;2.6470096
2019-11-01T06:30:56;1;-105.22878;9.252536;-120.15221;2.7000382
2019-11-01T06:35:56;1;-103.62967;10.171618;-120.56243;2.6454227
2019-11-01T06:40:56;1;-93.81969;14.966389;-120.21992;2.9644587
2019-11-01T06:45:56;1;-91.65284;16.479849;-120.38085;2.8060272
2019-11-01T06:50:56;1;-83.363106;20.656853;-120.739235;2.6802104
2019-11-01T06:55:56;1;-92.947395;15.572976;-120.456924;2.865922
2019-11-01T07:00:56;1;-91.05358;16.245977;-120.15827;2.605372
2019-11-01T07:05:56;1;-83.394554;20.002504;-120.4995;2.7673218
2019-11-01T07:10:56;1;-89.887115;16.945595;-121.05742;2.653391
2019-11-01T07:15:56;1;-85.535774;19.042868;-120.10767;3.0375135
2019-11-01T07:20:56;1;-88.243904;17.773256;-120.82023;2.5131724
2019-11-01T07:25:56;1;-81.63889;20.639753;-120.16089;2.6510425
2019-11-01T07:30:56;1;-81.93062;20.579252;-120.19215;2.7983346
2019-11-01T07:35:56;1;-84.665565;19.014856;-119.49739;2.9571564
2019-11-01T07:40:56;1;-87.20495;18.101704;-120.688515;2.5145316
2019-11-01T07:45:56;1;-85.47215;18.755508;-120.788345;2.6081605
2019-11-01T07:50:56;1;-88.87889;17.206902;-120.737236;2.6810527
2019-11-01T07:55:56;1;-86.83978;18.240086;-120.79882;2.4867249
2019-11-01T08:00:56;1;-84.399475;19.277847;-120.20714;2.564303
2019-11-01T08:05:56;1;-83.83546;19.901686;-120.35935;2.4690886
2019-11-01T08:10:56;1;-86.61448;18.409327;-120.225136;2.5212193
2019-11-01T08:15:56;1;-82.3792;20.391672;-120.37307;2.4089725
2019-11-01T08:20:56;1;-83.911934;19.449804;-120.0203;2.4674425
2019-11-01T08:25:56;1;-84.61676;19.137232;-119.6014;2.4670439
2019-11-01T08:30:56;1;-83.453064;19.190666;-118.80426;2.5232453
2019-11-01T08:35:56;1;-89.884544;16.640741;-120.084595;2.6252835
2019-11-01T08:40:56;1;-87.449005;17.827185;-120.0507;2.5634842
2019-11-01T08:45:56;1;-86.40905;18.705837;-120.36707;2.638452
2019-11-01T08:50:56;1;-82.78439;19.858112;-119.8579;2.3856804
2019-11-01T08:55:56;1;-86.53381;18.518732;-120.39764;2.4801857
2019-11-01T09:00:56;1;-87.06287;18.4062;-120.0288;2.7680159
2019-11-01T09:05:56;1;-87.39449;18.346415;-121.00878;2.5412686
2019-11-01T09:10:56;1;-89.642784;17.237278;-121.04758;2.626465
2019-11-01T09:15:56;1;-86.92036;18.434725;-121.20291;2.551791
2019-11-01T09:20:56;1;-87.14479;18.250498;-120.866486;2.7143748
2019-11-01T09:25:56;1;-86.69072;18.45108;-120.987885;2.48939
2019-11-01T09:30:56;1;-92.12337;15.662737;-120.371735;2.6906378
2019-11-01T09:35:56;1;-92.3192;15.533736;-120.86295;2.6294265
2019-11-01T09:40:56;1;-92.51979;15.349567;-120.26572;2.7150202
2019-11-01T09:45:56;1;-92.59363;15.619771;-121.01958;2.5618877
2019-11-01T09:50:56;1;-90.180016;16.811544;-120.99202;2.6043808
2019-11-01T09:55:56;1;-91.45732;15.891678;-120.67947;2.5511286
2019-11-01T10:00:56;1;-91.584816;15.584126;-119.9297;2.666142
2019-11-01T10:05:56;1;-86.84563;17.148497;-117.97593;3.4363744
2019-11-01T10:10:56;1;-93.46344;14.585042;-119.876976;2.4939992
2019-11-01T10:15:56;1;-89.96744;13.908727;-114.84884;2.415068
2019-11-01T10:20:56;1;-90.0889;15.759552;-117.73222;3.2015295
2019-11-01T10:25:56;1;-87.49991;16.85497;-118.25686;2.531408
2019-11-01T10:30:56;1;-92.47411;14.682043;-118.639595;2.7159312
2019-11-01T10:35:56;1;-94.06108;14.240618;-119.19169;2.7410557
2019-11-01T10:40:56;1;-88.725006;16.687975;-119.48955;2.5715036
2019-11-01T10:45:56;1;-88.785866;16.751226;-119.769135;2.5089293
2019-11-01T10:50:56;1;-90.68328;16.302156;-119.67625;2.904459
2019-11-01T10:55:56;1;-88.82509;16.728891;-119.8316;2.428771
2019-11-01T11:00:56;1;-86.058624;18.039661;-119.02516;2.6104975
2019-11-01T11:05:56;1;-88.368965;16.572084;-119.03908;2.5478687
2019-11-01T11:10:56;1;-91.76777;14.939001;-119.16876;2.4528809
2019-11-01T11:15:56;1;-92.92615;14.12836;-119.43154;2.5748668
2019-11-01T11:20:56;1;-89.9712;16.207214;-119.700356;2.6056654
2019-11-01T11:25:56;1;-87.28796;17.425901;-119.867386;2.4295583
2019-11-01T11:30:56;1;-90.050674;15.955789;-119.15025;2.7110806
2019-11-01T11:35:56;1;-92.73429;15.058512;-119.48619;2.5594337
2019-11-01T11:40:56;1;-89.69824;16.343552;-119.49919;2.5458946
2019-11-01T11:45:56;1;-88.11751;17.08384;-119.25325;2.6857224
2019-11-01T11:50:56;1;-93.64027;14.58026;-119.52931;2.5876946
2019-11-01T11:55:56;1;-88.88313;16.582054;-119.2775;2.7242687
2019-11-01T12:00:56;1;-88.529594;16.629545;-119.9172;2.528343
2019-11-01T12:05:56;1;-88.60902;16.928406;-119.81884;2.639147
2019-11-01T12:10:56;1;-89.3025;16.741434;-119.91578;2.5532722
2019-11-01T12:15:56;1;-89.049446;16.860983;-119.77074;2.6480587
2019-11-01T12:20:56;1;-93.606895;14.872745;-120.1715;2.5521255
2019-11-01T12:25:56;1;-89.50013;16.54056;-120.012665;2.5947053
2019-11-01T12:30:56;1;-91.85498;15.600625;-119.91615;2.5392017
2019-11-01T12:35:56;1;-92.078575;15.515889;-119.91812;2.6076007
2019-11-01T12:40:56;1;-91.11799;15.873446;-119.63197;2.592616
2019-11-01T12:45:56;1;-83.815094;17.372112;-115.425995;3.1451263
2019-11-01T12:50:56;1;-92.156;11.316433;-111.248505;2.7548969
2019-11-01T12:55:56;1;-90.90192;15.8415985;-119.43486;2.4466503
2019-11-01T13:00:56;1;-84.001526;19.149426;-119.46744;2.5408614
2019-11-01T13:05:56;1;-88.44782;17.07212;-119.802444;2.382929
2019-11-01T13:10:56;1;-92.34047;14.926869;-119.41932;2.5752444
2019-11-01T13:15:56;1;-86.90779;18.30456;-120.07479;2.8700736
2019-11-01T13:20:56;1;-85.96325;18.88203;-120.55165;2.5204554
2019-11-01T13:25:56;1;-87.49947;17.879787;-120.2099;2.3983293
2019-11-01T13:30:56;1;-86.54688;18.611473;-120.465164;2.5629568
2019-11-01T13:35:56;1;-84.49417;19.190456;-120.51168;2.4996066
2019-11-01T13:40:56;1;-89.06118;17.212444;-120.440926;2.5735
2019-11-01T13:45:56;1;-83.400185;20.120426;-120.38403;2.6069446
2019-11-01T13:50:56;1;-85.8996;18.348856;-118.77441;2.8719387
2019-11-01T13:55:56;1;-89.214806;16.922144;-119.71409;2.6716921
2019-11-01T14:00:56;1;-91.134125;16.020374;-119.116974;2.757488
2019-11-01T14:05:56;1;-89.14865;17.33545;-120.16661;2.676054
2019-11-01T14:10:56;1;-79.973404;21.745546;-120.45414;2.5798898
2019-11-01T14:15:56;1;-88.190445;17.03187;-120.39259;2.4525375
2019-11-01T14:20:56;1;-89.701164;16.90836;-120.3358;2.6204834
2019-11-01T14:25:56;1;-85.577156;19.431368;-120.82734;2.5755026
2019-11-01T14:30:56;1;-84.897995;19.622044;-121.20864;2.4630337
2019-11-01T14:35:56;1;-86.72006;18.83765;-120.90863;2.4956005
2019-11-01T14:40:56;1;-89.11904;17.242899;-120.509865;2.534116
2019-11-01T14:45:56;1;-82.97335;20.384245;-120.567955;2.4922855
2019-11-01T14:50:56;1;-87.78194;17.539642;-120.021866;2.5158615
2019-11-01T14:55:56;1;-86.26526;18.783228;-120.51322;2.5140324
2019-11-01T15:00:56;1;-82.94021;20.502405;-120.34099;2.4708195
2019-11-01T15:05:56;1;-83.8903;19.655943;-120.03118;2.6485114
2019-11-01T15:10:56;1;-84.90259;19.27979;-119.86763;2.707717
2019-11-01T15:15:56;1;-81.019714;21.321127;-120.627106;2.4386463
2019-11-01T15:20:56;1;-86.449875;18.987377;-120.838005;2.5738869
2019-11-01T15:25:56;1;-83.84368;19.76753;-120.59085;2.5570774
2019-11-01T15:30:56;1;-84.57979;19.709723;-120.69221;2.5808315
2019-11-01T15:35:56;1;-85.13966;19.315079;-120.63128;2.6335053
2019-11-01T15:40:56;1;-84.63595;19.789555;-120.91333;2.3918695
2019-11-01T15:45:56;1;-85.05887;19.505093;-120.93868;2.4568334
2019-11-01T15:50:56;1;-85.430305;18.765541;-120.49468;2.4283614
2019-11-01T15:55:56;1;-95.66934;14.035223;-120.346054;2.515425
2019-11-01T16:00:56;1;-87.61011;17.60744;-119.48475;2.708726
2019-11-01T16:05:56;1;-90.59062;16.688597;-120.68929;2.7068021
2019-11-01T16:10:56;1;-93.84351;15.364431;-120.95109;2.586435
2019-11-01T16:15:56;1;-109.94024;7.073852;-120.26041;2.5420437
2019-11-01T16:20:56;1;-115.45947;4.6153026;-120.01143;2.7905736
2019-11-01T16:25:56;1;-118.2702;3.656659;-120.799835;2.6756096
2019-11-01T16:30:56;1;-116.49889;3.5129013;-115.85475;3.3209805
2019-11-01T16:35:56;1;-119.39704;2.912313;-120.33174;2.6746814
2019-11-01T16:40:56;1;-118.96954;2.8447096;-119.52484;2.570527
2019-11-01T16:45:56;1;-119.596176;2.8044028;-120.33035;2.6068933
2019-11-01T16:50:56;1;-121.24769;2.8890579;-121.601234;2.8247652
2019-11-01T16:55:56;1;-119.99297;3.0369518;-119.29137;3.1036372
2019-11-01T17:00:56;1;-120.43261;2.5734782;-120.775604;2.5264046
2019-11-01T17:05:56;1;-120.43635;2.5763245;-120.20473;2.5926843
2019-11-01T17:10:56;1;-120.62381;2.561033;-120.87227;2.4539363
2019-11-01T17:15:56;1;-119.88082;2.7151237;-120.160446;2.765484
2019-11-01T17:20:56;1;-119.071884;2.8481574;-118.6413;2.996694
2019-11-01T17:25:56;1;-120.02941;2.615766;-120.146286;2.5735264
2019-11-01T17:30:56;1;-119.92488;2.655403;-120.2145;2.6396604
2019-11-01T17:35:56;1;-119.291626;2.7800481;-119.77253;2.7380629
2019-11-01T17:40:56;1;-119.35299;2.702161;-119.51549;2.8002741
2019-11-01T17:45:56;1;-119.11346;2.7631664;-118.94929;2.8248496
2019-11-01T17:50:56;1;-118.21927;2.9138753;-119.07835;2.561764
2019-11-01T17:55:56;1;-119.30672;2.8457315;-120.04583;2.6443362
2019-11-01T18:00:56;1;-119.47267;2.959633;-120.489075;2.5953705
2019-11-01T18:05:56;1;-115.74878;4.4241004;-119.89323;2.62559
2019-11-01T18:10:56;1;-115.82074;4.0362673;-119.13422;2.6528027
2019-11-01T18:15:56;1;-116.027794;3.9783266;-119.34605;2.6640654
2019-11-01T18:20:56;1;-117.048546;3.4502354;-119.08669;2.595799
2019-11-01T18:25:56;1;-115.130714;4.4697423;-119.44143;2.7062712
2019-11-01T18:30:56;1;-117.374115;3.382116;-119.47327;2.5725954
2019-11-01T18:35:56;1;-118.380424;2.963508;-119.72669;2.530748
2019-11-01T18:40:56;1;-115.08555;4.45968;-119.59248;2.5011961
2019-11-01T18:45:56;1;-105.57865;8.363752;-116.87683;3.1631343
2019-11-01T18:50:56;1;-104.82679;9.074159;-119.65326;2.5107665
2019-11-01T18:55:56;1;-111.69675;5.9139576;-119.357605;2.6153648
2019-11-01T19:00:56;1;-116.94616;3.5699031;-118.816536;2.840918
2019-11-01T19:05:56;1;-118.6318;2.9953365;-119.754036;2.6208985
2019-11-01T19:10:56;1;-118.61698;2.854669;-119.727684;2.5908146
2019-11-01T19:15:56;1;-118.888756;2.7833066;-119.43841;2.6597931
2019-11-01T19:20:56;1;-118.45296;2.8715036;-119.12532;2.598323
2019-11-01T19:25:56;1;-118.94268;2.8256192;-119.73043;2.5586064
2019-11-01T19:30:56;1;-117.533356;3.359667;-119.310356;2.74312
2019-11-01T19:35:56;1;-118.625885;2.955251;-119.42028;2.643989
2019-11-01T19:40:56;1;-118.471924;3.0244243;-118.49291;3.0423224
2019-11-01T19:45:56;1;-118.09639;3.0127852;-118.32753;2.9807944
2019-11-01T19:50:56;1;-117.47889;3.2897062;-118.83813;2.8910658
2019-11-01T19:55:56;1;-118.99725;2.7896698;-119.646;2.5689728
2019-11-01T20:00:56;1;-118.77288;2.9495285;-119.81646;2.6033368
2019-11-01T20:05:56;1;-119.021614;2.9088993;-119.95917;2.5795672
2019-11-01T20:10:56;1;-119.106346;2.7123244;-119.81685;2.4809654
2019-11-01T20:15:56;1;-118.87991;2.9046435;-119.96282;2.5321176
2019-11-01T20:20:56;1;-118.52955;3.120635;-120.00786;2.5945556
2019-11-01T20:25:56;1;-118.93342;2.8035395;-119.80672;2.5273297
2019-11-01T20:30:56;1;-118.81357;2.9620297;-119.828255;2.5897448
2019-11-01T20:35:56;1;-119.538475;2.632358;-119.83125;2.5996897
2019-11-01T20:40:56;1;-119.17245;2.6778393;-119.73897;2.4716399
2019-11-01T20:45:56;1;-119.36685;2.6312788;-119.66063;2.6313188
2019-11-01T20:50:56;1;-119.146355;2.6111317;-119.469215;2.5730722
2019-11-01T20:55:56;1;-118.53697;3.0135176;-119.73295;2.458322
2019-11-01T21:00:56;1;-119.37943;2.5481577;-119.61545;2.5301783
2019-11-01T21:05:56;1;-118.59088;2.7310123;-118.31839;2.714808
2019-11-01T21:10:56;1;-106.5842;8.327957;-119.52456;2.612152
2019-11-01T21:15:56;1;-119.528244;2.6468709;-119.81335;2.6089983
2019-11-01T21:20:56;1;-119.286446;2.7077804;-119.78519;2.610108
2019-11-01T21:25:56;1;-119.24346;2.7074625;-119.68464;2.6094005
2019-11-01T21:30:56;1;-119.22961;2.7316618;-119.438;2.7308772
2019-11-01T21:35:56;1;-119.2896;2.729162;-119.90152;2.5049021
2019-11-01T21:40:56;1;-119.559296;2.6394434;-119.84803;2.5824437
2019-11-01T21:45:56;1;-119.553955;2.596887;-120.14129;2.5226839
2019-11-01T21:50:56;1;-119.67575;2.5830405;-120.13756;2.5685103
2019-11-01T21:55:56;1;-119.37149;2.7336867;-119.84323;2.5966878
2019-11-01T22:00:56;1;-120.14655;2.6904685;-120.30153;2.7823076
2019-11-01T22:05:56;1;-119.716385;2.9110134;-120.493164;2.6310265
2019-11-01T22:10:56;1;-119.69704;2.9059572;-120.51747;2.5953014
2019-11-01T22:15:56;1;-119.61966;2.7729585;-119.95282;2.7429876
2019-11-01T22:20:56;1;-119.65951;2.725295;-120.15433;2.6235735
2019-11-01T22:25:56;1;-119.66577;2.6148968;-119.974014;2.5942469
2019-11-01T22:30:56;1;-119.66115;2.7234638;-120.13459;2.613098
2019-11-01T22:35:56;1;-119.60241;2.804275;-120.37733;2.592002
2019-11-01T22:40:56;1;-119.60526;2.850449;-120.31478;2.6447647
2019-11-01T22:45:56;1;-119.69356;2.8486986;-120.45008;2.6574597
2019-11-01T22:50:56;1;-120.14513;2.6944335;-120.56179;2.5641742
2019-11-01T22:55:56;1;-119.938774;2.5963798;-120.287834;2.4849007
2019-11-01T23:00:56;1;-119.493866;2.736739;-120.00401;2.5734482
2019-11-01T23:05:56;1;-116.92118;3.9212399;-120.03869;2.5500069
2019-11-01T23:10:56;1;-119.9913;2.5880718;-120.53646;2.4828055
2019-11-01T23:15:56;1;-119.96893;2.6367993;-120.182625;2.5638099
2019-11-01T23:20:56;1;-119.9011;2.6375148;-120.34868;2.575191
2019-11-01T23:25:56;1;-119.93365;2.7266145;-120.44765;2.635877
2019-11-01T23:30:56;1;-119.64573;2.826789;-120.2728;2.6716008
2019-11-01T23:35:56;1;-119.716324;2.722368;-120.028076;2.7188878
2019-11-01T23:40:56;1;-119.6254;2.7303317;-120.257935;2.602137
2019-11-01T23:45:56;1;-119.07456;2.9239478;-119.56644;2.8554974
2019-11-01T23:50:56;1;-119.38045;3.0065832;-120.10236;2.8417792
2019-11-01T23:55:56;1;-119.60979;2.9353058;-120.421906;2.763251
2019-11-02T00:00:56;1;-118.78383;3.2499142;-120.45312;2.6342251
2019-11-02T00:05:56;1;-119.52784;2.9451072;-120.306984;2.7301013
2019-11-02T00:10:56;1;-118.582695;3.271895;-120.51134;2.547018
2019-11-02T00:15:56;1;-119.455666;2.937216;-120.44942;2.5571835
2019-11-02T00:20:56;1;-109.93746;7.201443;-120.827446;2.3970208
2019-11-02T00:25:56;1;-119.159546;2.9876873;-120.49288;2.4898446
2019-11-02T00:30:56;1;-119.640045;2.908752;-120.62126;2.580746
2019-11-02T00:35:56;1;-119.62114;2.9682772;-120.69431;2.5608346
2019-11-02T00:40:56;1;-119.128494;3.0829544;-119.27348;2.991878
2019-11-02T00:45:56;1;-119.91603;2.7262824;-120.461464;2.556794
2019-11-02T00:50:56;1;-119.83101;2.6926246;-120.57313;2.414448
2019-11-02T00:55:56;1;-119.14361;2.9071834;-119.60784;2.7512226
2019-11-02T01:00:56;1;-119.58839;2.84653;-120.39145;2.6280158
2019-11-02T01:05:56;1;-116.02448;3.0342536;-114.229;3.0716264
2019-11-02T01:10:56;1;-119.35397;2.9525099;-120.43491;2.562637
2019-11-02T01:15:56;1;-119.6105;2.8160963;-120.33613;2.5706434
2019-11-02T01:20:56;1;-119.11235;2.9913244;-120.15946;2.6608832
2019-11-02T01:25:56;1;-119.66486;2.8046196;-120.236176;2.5241394
2019-11-02T01:30:56;1;-119.425446;2.8258896;-120.29718;2.5273626
2019-11-02T01:35:56;1;-116.95379;3.7893133;-119.940994;2.6385794
2019-11-02T01:40:56;1;-118.62207;2.9313257;-119.60779;2.6689312
2019-11-02T01:45:56;1;-119.25687;2.5868418;-119.53644;2.516158
2019-11-02T01:50:56;1;-118.515884;2.9650772;-119.73146;2.5828185
2019-11-02T01:55:56;1;-119.193794;2.8951313;-120.118256;2.6041248
2019-11-02T02:00:56;1;-118.79668;2.9899614;-119.17327;2.9607382
2019-11-02T02:05:56;1;-119.660065;2.7578318;-120.554375;2.383805
2019-11-02T02:10:56;1;-118.7578;3.2296386;-120.05856;2.746835
2019-11-02T02:15:56;1;-119.380325;2.8092792;-120.018295;2.627144
2019-11-02T02:20:56;1;-119.299835;2.8904164;-120.07055;2.608352
2019-11-02T02:25:56;1;-119.223206;2.9216676;-119.99028;2.6968288
2019-11-02T02:30:56;1;-118.99133;3.0920558;-119.45314;3.052449
2019-11-02T02:35:56;1;-119.00387;2.9545963;-120.0329;2.5916038
2019-11-02T02:40:56;1;-119.34197;2.770244;-119.94182;2.6047974
2019-11-02T02:45:56;1;-119.35612;2.8934376;-119.85793;2.75358
2019-11-02T02:50:56;1;-119.49889;2.801663;-119.78941;2.816562
2019-11-02T02:55:56;1;-119.4293;2.9177089;-119.74978;2.902818
2019-11-02T03:00:56;1;-117.829285;3.5165944;-120.05754;2.571443
2019-11-02T03:05:56;1;-119.19947;2.9201593;-120.19057;2.7747426
2019-11-02T03:10:56;1;-119.19094;3.052678;-120.09494;2.6688375
2019-11-02T03:15:56;1;-120.71656;2.5984702;-121.1981;2.5031776
2019-11-02T03:20:56;1;-120.63124;2.6948268;-120.97193;2.6189795
2019-11-02T03:25:56;1;-119.99907;2.9378068;-120.664085;2.774767
2019-11-02T03:30:56;1;-119.98462;2.752335;-120.280396;2.6217654
2019-11-02T03:35:56;1;-120.28514;2.7146223;-120.4145;2.8492932
2019-11-02T03:40:56;1;-120.344826;2.7369535;-120.490265;2.769814
2019-11-02T03:45:56;1;-117.9824;3.8148994;-120.121826;2.8356483
2019-11-02T03:50:56;1;-120.30988;2.6610904;-120.55586;2.6077828
2019-11-02T03:55:56;1;-120.24096;2.7725353;-120.664345;2.6315367
2019-11-02T04:00:56;1;-117.32694;3.833357;-120.31524;2.6899087
2019-11-02T04:05:56;1;-118.02728;3.7459338;-120.48091;2.5530977
2019-11-02T04:10:56;1;-120.15782;2.7547238;-120.410645;2.6512876
2019-11-02T04:15:56;1;-118.73362;3.3729544;-120.642845;2.4954715
2019-11-02T04:20:56;1;-114.89545;4.907569;-120.74294;2.413019
2019-11-02T04:25:56;1;-120.801445;2.5636597;-120.917725;2.6161816
2019-11-02T04:30:56;1;-120.45629;2.6764135;-120.752495;2.5829537
2019-11-02T04:35:56;1;-115.01801;4.697805;-119.72258;2.7601182
2019-11-02T04:40:56;1;-119.36629;2.9053414;-119.37413;2.8014605
2019-11-02T04:45:56;1;-120.29056;2.6026819;-120.44843;2.613973
2019-11-02T04:50:56;1;-119.34675;2.709566;-119.3775;2.7754338
2019-11-02T04:55:56;1;-118.61927;3.087185;-119.15243;3.1311696
2019-11-02T05:00:56;1;-120.22019;2.7986324;-120.368355;2.6767719
2019-11-02T05:05:56;1;-119.86886;2.7737365;-120.10439;2.8388815
2019-11-02T05:10:56;1;-119.54914;2.9458766;-120.09784;2.7522535
2019-11-02T05:15:56;1;-120.09498;2.7404678;-120.76869;2.4315996
2019-11-02T05:20:56;1;-119.94267;2.8714776;-120.99777;2.5220647
2019-11-02T05:25:56;1;-120.04833;2.7636983;-121.0079;2.4718087
2019-11-02T05:30:56;1;-120.3508;2.7900445;-120.65966;2.6364193
2019-11-02T05:35:56;1;-120.559204;2.656787;-121.03042;2.4738228
2019-11-02T05:40:56;1;-120.06251;2.7035077;-120.9185;2.3801067
2019-11-02T05:45:56;1;-119.83165;2.8176992;-120.66605;2.4015088
2019-11-02T05:50:56;1;-118.82419;3.332257;-120.920074;2.6276207
2019-11-02T05:55:56;1;-116.803474;4.018346;-120.31119;2.5736756
2019-11-02T06:00:56;1;-112.27772;5.537333;-114.37324;4.2406707
2019-11-02T06:05:56;1;-111.06311;6.239498;-119.549355;2.6542854
2019-11-02T06:10:56;1;-108.54867;7.2964764;-119.46146;2.6287756
2019-11-02T06:15:56;1;-107.10149;7.969074;-119.65171;2.418622
2019-11-02T06:20:56;1;-104.152794;9.31715;-119.499725;2.5493128
2019-11-02T06:25:56;1;-101.552536;10.626056;-119.663704;2.5558045
2019-11-02T06:30:56;1;-99.38758;11.497441;-118.489685;2.9546232